Voltar ao catálogo

ECHO 1 DEB

METAL OBJ

AtivoLEO
NORAD 51·DEBRIS·🇺🇸 United States

Lançado Aug 12, 1960 de Cape Canaveral Space Force Station

Loading…

Próximas Passagens (próximas 24 horas)

TLE

AtualizadoSource: Space-Track

Época: Sep 14, 2026, 08:35 UTC

1 00051U 60009C   26257.35776023 -.00000024  00000-0  60208-3 0  9992
2 00051  47.2110 133.4284 0108647 101.1935 260.1089 12.18385292942040

Acompanhe ECHO 1 DEB em tempo real com AllMySat

Download on the App Store